[[{"header":{"parameterUnit":"m.s-1","parameterCategory":1,"la1":30.2991,"la2":30.254,"lo1":-89.0895,"lo2":-89.0444,"dy":0.0017,"dx":0.0017,"nx":28,"ny":28,"refTime":"2024-05-04T03:00:00:Z","depth":0,"parameterNumber":2,"parameterNumberName":"U-component_of_WINDS"},"data":[0,0,0,0,0,0,0,0,0,0,0,0,0,0,0,0,0,0,0,0,0,0,0,0,0,0,0,0,0,0,0,0,0,0,0,0,0,0,0,0,0,0,0,0,0,0,0,0,0,0,0,0,0,0,0,0,0,0,-1.764,-1.7639,0,-1.7566,-1.7565,-1.7565,-1.7505,-1.7504,-1.7504,-1.7503,-1.7425,-1.7424,-1.7422,0,0,0,0,0,0,0,0,0,0,0,0,0,-1.7727,-1.7726,-1.764,-1.7639,-1.7638,-1.7566,-1.7565,-1.7564,-1.7505,-1.7504,-1.7504,-1.7503,-1.7426,-1.7424,-1.7422,0,0,0,0,0,0,0,0,0,0,0,0,0,-1.7675,-1.7725,-1.764,-1.76,-1.7596,-1.7567,-1.7565,-1.7564,-1.7505,-1.7504,-1.7504,-1.7503,-1.7427,-1.7424,-1.7422,-1.7426,0,0,-1.7415,-1.7414,0,0,0,0,0,0,0,0,-1.7678,-1.7672,-1.7607,-1.7603,-1.7598,-1.7544,-1.7567,-1.7518,-1.7506,-1.754,-1.7503,-1.7502,-1.7465,-1.746,-1.7448,-1.7423,-1.7419,-1.7415,-1.7414,-1.7413,-1.7412,0,0,0,0,0,0,0,-1.7681,-1.7674,-1.7611,-1.7606,-1.76,-1.7585,-1.7577,-1.7558,-1.7508,-1.7537,-1.7532,-1.7524,-1.7463,-1.745,-1.7446,-1.7418,-1.7415,-1.7413,-1.7412,-1.7411,-1.7392,-1.7393,0,0,0,0,0,0,-1.7692,-1.7678,-1.7613,-1.7608,-1.7636,-1.7584,-1.7575,-1.7562,-1.7508,-1.7499,-1.7525,-1.7522,-1.7455,-1.7448,-1.7443,-1.7443,-1.7413,-1.741,-1.7409,-1.7391,-1.7392,-1.7393,0,0,0,0,0,0,-1.7694,-1.7686,-1.7616,-1.7642,-1.7632,-1.7584,-1.757,-1.7561,-1.7549,-1.75,-1.7491,-1.7522,-1.7454,-1.7446,-1.7431,-1.744,-1.7409,-1.7407,-1.739,-1.7391,-1.7392,-1.7445,0,0,0,0,0,0,-1.7697,-1.7688,-1.7689,-1.7642,-1.7631,-1.7606,-1.7571,-1.756,-1.7545,-1.754,-1.7494,-1.7486,-1.7452,-1.7435,-1.7429,-1.7436,-1.7406,-1.7389,-1.739,-1.7392,-1.7442,-1.7448,-1.7453,0,0,0,0,0,-1.77,-1.7706,-1.7689,-1.7682,-1.7632,-1.7607,-1.76,-1.7562,-1.7546,-1.7547,-1.7516,-1.7487,-1.744,-1.7434,-1.7426,-1.7433,-1.7388,-1.739,-1.7392,-1.744,-1.7447,-1.7453,0,0,0,0,0,0,-1.7754,-1.77,-1.768,-1.7672,-1.7645,-1.7597,-1.7596,-1.7571,-1.7547,-1.7543,-1.7497,-1.7487,-1.7476,-1.7453,-1.7447,-1.7434,-1.741,-1.7411,-1.7449,-1.7456,-1.7461,-1.7466,-1.7404,0,0,0,0,0,-1.7766,-1.7751,-1.7703,-1.7701,-1.7688,-1.7645,-1.7633,-1.7606,-1.7576,-1.7563,-1.7531,-1.7502,-1.748,-1.7467,-1.7444,-1.7439,-1.7428,-1.7441,-1.7446,-1.7451,-1.7451,-1.7446,-1.7451,-1.7399,-1.7399,-1.7399,0,0,-1.7788,-1.7757,-1.775,-1.7711,-1.7687,-1.7671,-1.7635,-1.7621,-1.7609,-1.7561,-1.7544,-1.752,-1.7484,-1.7474,-1.7468,-1.7454,-1.7463,-1.7453,-1.7457,-1.7455,-1.7449,-1.7453,-1.7458,-1.74,-1.74,-1.74,0,0,-1.7822,-1.7797,-1.7792,-1.7768,-1.7732,-1.7703,-1.7703,-1.7659,-1.7641,-1.7624,-1.7587,-1.7572,-1.7537,-1.7512,-1.7495,-1.7521,-1.7493,-1.7515,-1.7542,-1.7537,-1.7541,-1.7545,-1.7553,-1.7556,-1.7516,-1.7516,-1.7516,0,-1.7854,-1.7831,-1.7792,-1.778,-1.7763,-1.772,-1.7714,-1.7693,-1.7652,-1.7641,-1.7627,-1.7581,-1.7554,-1.7537,-1.7544,-1.7532,-1.7528,-1.7519,-1.7544,-1.7547,-1.755,-1.7557,-1.756,-1.7519,-1.7518,-1.7518,-1.7518,0,-1.7872,-1.7856,-1.7856,-1.7818,-1.7801,-1.7792,-1.7752,-1.774,-1.7715,-1.7688,-1.7671,-1.7638,-1.7607,-1.7602,-1.7577,-1.7581,-1.7574,-1.7553,-1.7528,-1.7558,-1.7564,-1.7566,-1.7523,-1.7522,-1.7521,-1.752,0,0,-1.7936,-1.7877,-1.7878,-1.786,-1.7817,-1.7804,-1.7793,-1.7764,-1.7755,-1.7728,-1.7716,-1.7688,-1.7668,-1.7649,-1.7621,-1.7618,-1.7639,-1.7596,-1.7595,-1.7604,-1.764,-1.7655,-1.7659,-1.7621,-1.7621,-1.7621,-1.7643,0,-1.7962,-1.794,-1.7905,-1.7895,-1.7879,-1.7839,-1.7829,-1.7801,-1.7776,-1.7758,-1.7729,-1.7709,-1.7685,-1.7674,-1.7668,-1.7637,-1.7645,-1.7635,-1.7609,-1.7608,-1.7618,-1.7662,-1.7678,-1.77,-1.7645,-1.7645,-1.7645,0,-1.7989,-1.7965,-1.7953,-1.7911,-1.7903,-1.7895,-1.7866,-1.785,-1.7818,-1.78,-1.7779,-1.7749,-1.7735,-1.7713,-1.7692,-1.7686,-1.7673,-1.7657,-1.7656,-1.7651,-1.7628,-1.7657,-1.7706,-1.7709,-1.7649,-1.7649,-1.7648,0,-1.8036,-1.8001,-1.7989,-1.7975,-1.7926,-1.7921,-1.7901,-1.7868,-1.7853,-1.7827,-1.7817,-1.779,-1.7775,-1.7755,-1.7718,-1.7706,-1.77,-1.7676,-1.7684,-1.7685,-1.7683,-1.7683,-1.7729,-1.7677,-1.7677,-1.7677,-1.7677,0,-1.8068,-1.8061,-1.8009,-1.8002,-1.7993,-1.7954,-1.7946,-1.7922,-1.7893,-1.788,-1.7843,-1.7831,-1.7784,-1.7767,-1.7738,-1.7724,-1.7718,-1.7702,-1.7694,-1.7704,-1.7706,-1.7694,-1.7691,-1.7678,-1.7678,-1.7678,-1.7678,0,-1.8118,-1.8083,-1.8067,-1.8023,-1.8012,-1.8008,-1.7969,-1.796,-1.7933,-1.7916,-1.791,-1.7867,-1.7844,-1.7806,-1.7772,-1.7753,-1.7744,-1.7732,-1.7755,-1.775,-1.776,-1.7759,-1.7799,-1.7801,-1.7749,-1.775,-1.775,0,-1.814,-1.8135,-1.809,-1.8079,-1.806,-1.8042,-1.8027,-1.7988,-1.7973,-1.7936,-1.7931,-1.7906,-1.7884,-1.7849,-1.7814,-1.7788,-1.7774,-1.779,-1.777,-1.778,-1.7773,-1.7773,-1.7772,-1.7794,-1.7795,-1.7795,-1.7796,0,-1.8183,-1.8166,-1.8145,-1.8119,-1.8102,-1.808,-1.8055,-1.8048,-1.8002,-1.7988,-1.7965,-1.7948,-1.7913,-1.7888,-1.7857,-1.7835,-1.7808,-1.7803,-1.7803,-1.7813,-1.7826,-1.7818,-1.7767,-1.7801,-1.7801,-1.78,-1.78,-1.78,-1.8219,-1.8212,-1.8179,-1.8158,-1.8136,-1.8113,-1.8103,-1.8074,-1.8055,-1.8024,-1.8002,-1.798,-1.7948,-1.7903,-1.7883,-1.7865,-1.7852,-1.7853,-1.7853,-1.7853,-1.7857,-1.783,-1.7859,-1.7859,-1.7859,-1.7858,-1.7858,0,-1.8258,-1.8236,-1.8217,-1.8184,-1.8167,-1.8144,-1.8115,-1.8102,-1.8084,-1.8056,-1.8035,-1.8008,-1.7984,-1.7948,-1.792,-1.7913,-1.7899,-1.7907,-1.7906,-1.7901,-1.787,-1.7872,-1.7918,-1.7918,-1.7918,-1.7918,-1.7918,-1.7918,-1.8277,-1.8264,-1.8243,-1.8218,-1.8195,-1.8174,-1.816,-1.8139,-1.8117,-1.8088,-1.8068,-1.8045,-1.8014,-1.7984,-1.796,-1.795,-1.7941,-1.7952,-1.7938,-1.7909,-1.7904,-1.7898,-1.79,-1.7951,-1.7951,-1.7971,-1.7971,-1.7971]},{"header":{"parameterUnit":"m.s-1","parameterCategory":1,"la1":30.2991,"la2":30.254,"lo1":-89.0895,"lo2":-89.0444,"dy":0.0017,"dx":0.0017,"nx":28,"ny":28,"refTime":"2024-05-04T03:00:00:Z","depth":0,"parameterNumber":3,"parameterNumberName":"V-component_of_WINDS"},"data":[0,0,0,0,0,0,0,0,0,0,0,0,0,0,0,0,0,0,0,0,0,0,0,0,0,0,0,0,0,0,0,0,0,0,0,0,0,0,0,0,0,0,0,0,0,0,0,0,0,0,0,0,0,0,0,0,0,0,2.8961,2.8962,0,2.8982,2.8983,2.8983,2.9,2.9,2.9,2.9,2.902,2.902,2.902,0,0,0,0,0,0,0,0,0,0,0,0,0,2.8934,2.8934,2.8961,2.8962,2.8962,2.8982,2.8983,2.8983,2.9,2.9,2.9,2.9,2.9019,2.902,2.902,0,0,0,0,0,0,0,0,0,0,0,0,0,2.8949,2.8934,2.8961,2.8973,2.8974,2.8982,2.8983,2.8983,2.9,2.9,2.9,2.9001,2.9019,2.902,2.902,2.9018,0,0,2.9022,2.9022,0,0,0,0,0,0,0,0,2.8948,2.895,2.8971,2.8972,2.8973,2.8989,2.898,2.8995,2.9,2.899,2.9,2.9001,2.9009,2.901,2.9014,2.9019,2.902,2.9022,2.9022,2.9023,2.9023,0,0,0,0,0,0,0,2.8947,2.8949,2.897,2.8971,2.8973,2.8976,2.8979,2.8983,2.8998,2.8991,2.8992,2.8994,2.901,2.9013,2.9014,2.902,2.9022,2.9022,2.9023,2.9023,2.9025,2.9025,0,0,0,0,0,0,2.8945,2.8948,2.8969,2.897,2.8961,2.8977,2.8979,2.8984,2.8998,2.9,2.8994,2.8995,2.9012,2.9014,2.9015,2.9014,2.9023,2.9023,2.9023,2.9025,2.9025,2.9025,0,0,0,0,0,0,2.8944,2.8946,2.8968,2.896,2.8963,2.8977,2.8981,2.8984,2.8987,2.9,2.9003,2.8995,2.9012,2.9014,2.9017,2.9014,2.9023,2.9024,2.9026,2.9025,2.9025,2.901,0,0,0,0,0,0,2.8943,2.8946,2.8946,2.896,2.8963,2.8971,2.8981,2.8984,2.8988,2.899,2.9002,2.9004,2.9013,2.9017,2.9018,2.9015,2.9024,2.9026,2.9025,2.9025,2.9011,2.901,2.9008,0,0,0,0,0,2.8942,2.894,2.8946,2.8948,2.8963,2.897,2.8972,2.8983,2.8988,2.8988,2.8996,2.9004,2.9015,2.9017,2.9018,2.9016,2.9026,2.9026,2.9025,2.9012,2.901,2.9008,0,0,0,0,0,0,2.8924,2.8942,2.8948,2.8951,2.8959,2.8973,2.8973,2.8981,2.8987,2.8988,2.9001,2.9003,2.9005,2.9011,2.9013,2.9015,2.9021,2.9021,2.9011,2.9009,2.9008,2.9006,2.9025,0,0,0,0,0,2.8921,2.8926,2.8941,2.8942,2.8946,2.8959,2.8962,2.897,2.8979,2.8982,2.8991,2.8998,2.9004,2.9007,2.9012,2.9012,2.9015,2.9011,2.901,2.9008,2.9008,2.9009,2.9007,2.9023,2.9023,2.9023,0,0,2.8914,2.8924,2.8926,2.8939,2.8946,2.8951,2.8962,2.8966,2.8969,2.8982,2.8986,2.8993,2.9002,2.9004,2.9005,2.9009,2.9004,2.9008,2.9007,2.9007,2.9008,2.9007,2.9005,2.9022,2.9022,2.9023,0,0,2.8903,2.8911,2.8913,2.892,2.8932,2.8941,2.8941,2.8954,2.8959,2.8964,2.8974,2.8978,2.8986,2.8993,2.8997,2.8989,2.8996,2.899,2.8983,2.8983,2.8982,2.8981,2.8978,2.8977,2.899,2.899,2.899,0,2.8892,2.89,2.8913,2.8917,2.8922,2.8935,2.8937,2.8943,2.8955,2.8958,2.8962,2.8974,2.8981,2.8985,2.8983,2.8986,2.8987,2.8989,2.8981,2.898,2.8979,2.8977,2.8976,2.8989,2.8989,2.8989,2.8989,0,2.8886,2.8892,2.8892,2.8904,2.891,2.8912,2.8925,2.8928,2.8936,2.8944,2.8948,2.8957,2.8965,2.8966,2.8973,2.8971,2.8973,2.8979,2.8986,2.8977,2.8975,2.8974,2.8988,2.8988,2.8989,2.8989,0,0,2.8864,2.8885,2.8884,2.8891,2.8904,2.8909,2.8912,2.892,2.8923,2.8931,2.8934,2.8941,2.8947,2.8952,2.896,2.896,2.8954,2.8966,2.8967,2.8964,2.8952,2.8947,2.8946,2.8959,2.8958,2.8958,2.8951,0,2.8856,2.8863,2.8875,2.8879,2.8884,2.8897,2.89,2.8908,2.8916,2.8921,2.8929,2.8934,2.8942,2.8945,2.8946,2.8954,2.8951,2.8955,2.8961,2.8961,2.8958,2.8945,2.894,2.8933,2.895,2.895,2.895,0,2.8846,2.8855,2.8859,2.8873,2.8876,2.8879,2.8888,2.8892,2.8902,2.8908,2.8913,2.8922,2.8926,2.8932,2.8937,2.894,2.8943,2.8947,2.8947,2.8948,2.8955,2.8945,2.8931,2.893,2.8949,2.8949,2.8949,0,2.883,2.8843,2.8847,2.8852,2.8868,2.887,2.8876,2.8887,2.8891,2.8899,2.8902,2.8909,2.8913,2.8919,2.8929,2.8933,2.8933,2.894,2.8937,2.8937,2.8936,2.8936,2.8922,2.8938,2.8938,2.8938,2.8938,0,2.8819,2.8821,2.884,2.8843,2.8846,2.8859,2.8861,2.8869,2.8878,2.8882,2.8893,2.8897,2.891,2.8915,2.8923,2.8926,2.8927,2.8932,2.8934,2.8931,2.893,2.8933,2.8933,2.8938,2.8938,2.8938,2.8938,0,2.8802,2.8814,2.882,2.8836,2.8839,2.8841,2.8854,2.8856,2.8865,2.887,2.8872,2.8885,2.8891,2.8902,2.8911,2.8916,2.8918,2.8921,2.8915,2.8916,2.8913,2.8913,2.89,2.8898,2.8915,2.8915,2.8915,0,2.8794,2.8796,2.8812,2.8816,2.8823,2.8829,2.8834,2.8847,2.8852,2.8864,2.8865,2.8872,2.8879,2.8888,2.8898,2.8905,2.8908,2.8903,2.8909,2.8906,2.8908,2.8908,2.8909,2.8902,2.8902,2.8901,2.8901,0,2.8779,2.8785,2.8793,2.8802,2.8808,2.8816,2.8825,2.8827,2.8842,2.8846,2.8854,2.8859,2.8868,2.8875,2.8884,2.889,2.8898,2.8899,2.8899,2.8896,2.8892,2.8894,2.8911,2.8899,2.89,2.89,2.89,2.89,2.8766,2.8769,2.8781,2.8789,2.8797,2.8805,2.8808,2.8818,2.8824,2.8834,2.8841,2.8848,2.8857,2.887,2.8875,2.888,2.8884,2.8883,2.8883,2.8883,2.8882,2.8891,2.8882,2.8882,2.8882,2.8882,2.8882,0,2.8752,2.8761,2.8768,2.878,2.8786,2.8794,2.8804,2.8808,2.8814,2.8823,2.883,2.8838,2.8845,2.8855,2.8863,2.8865,2.8868,2.8866,2.8866,2.8867,2.8878,2.8878,2.8863,2.8863,2.8863,2.8863,2.8863,2.8863,2.8745,2.8751,2.8758,2.8768,2.8776,2.8784,2.8788,2.8795,2.8803,2.8812,2.8818,2.8825,2.8835,2.8843,2.885,2.8853,2.8855,2.8851,2.8855,2.8865,2.8867,2.8868,2.8868,2.8852,2.8852,2.8845,2.8844,2.8844]}]]